This is the latest recevied weather packets stored in our database for station/object OE2ATN. If no packets are shown the sender has not sent any weather packets the latest 10 day(s).
| Time | Temp. | Humidity | Pressure | Rain* | Wind** | Luminosity | Snow |
|---|---|---|---|---|---|---|---|
| 1777716875 | 18.33° C | 45% | 1030.2 hPa | 0 mm | - | - | - |
| 1777716575 | 18.33° C | 44% | 1030.3 hPa | 0 mm | - | - | - |
| 1777716275 | 17.78° C | 45% | 1030.4 hPa | 0 mm | - | - | - |
| 1777715975 | 17.78° C | 46% | 1030.4 hPa | 0 mm | - | - | - |
| 1777715675 | 17.78° C | 46% | 1030.6 hPa | 0 mm | - | - | - |
| 1777715375 | 17.22° C | 48% | 1030.6 hPa | 0 mm | - | - | - |
| 1777715074 | 17.22° C | 50% | 1030.7 hPa | 0 mm | - | - | - |
| 1777714775 | 16.67° C | 51% | 1030.8 hPa | 0 mm | - | - | - |
| 1777714475 | 16.67° C | 52% | 1030.8 hPa | 0 mm | - | - | - |
| 1777714175 | 16.11° C | 54% | 1031 hPa | 0 mm | - | - | - |
| 1777713875 | 16.11° C | 50% | 1031.1 hPa | 0 mm | - | - | - |
| 1777713575 | 15.56° C | 53% | 1031.1 hPa | 0 mm | - | - | - |
| 1777713275 | 15.56° C | 57% | 1031.3 hPa | 0 mm | - | - | - |
| 1777712974 | 15° C | 56% | 1031.3 hPa | 0 mm | - | - | - |
| 1777712674 | 15° C | 56% | 1031.4 hPa | 0 mm | - | - | - |
| 1777712375 | 15° C | 57% | 1031.4 hPa | 0 mm | - | - | - |
| 1777712074 | 14.44° C | 58% | 1031.5 hPa | 0 mm | - | - | - |
| 1777711775 | 14.44° C | 58% | 1031.6 hPa | 0 mm | - | - | - |
| 1777711474 | 13.89° C | 60% | 1031.9 hPa | 0 mm | - | - | - |
| 1777711174 | 13.89° C | 60% | 1032 hPa | 0 mm | - | - | - |
| 1777710875 | 13.33° C | 63% | 1031.9 hPa | 0 mm | - | - | - |
| 1777710575 | 12.78° C | 63% | 1032 hPa | 0 mm | - | - | - |
| 1777710275 | 12.78° C | 64% | 1032.1 hPa | 0 mm | - | - | - |
| 1777709975 | 12.78° C | 64% | 1032.1 hPa | 0 mm | - | - | - |
| 1777709675 | 12.22° C | 68% | 1032.1 hPa | 0 mm | - | - | - |
* Rain latest hour (hover to see other rain measurements)
** Current wind speed in m/s (hover to see current wind gust speed)